This demonstration page uses our WeatherBlox Daily Observations layout. Learn more.

Left ArrowRight Arrow

Hourly Observations for March 11, 2020

Temp ( °F °C ) Dew Point ( °F °C ) Humidity (%) Winds ( mph kmh ) Pressure ( in mb ) Visibility ( mi km ) Precip ( " mm )
12:56 am 00:56 Cloudy 40 4.2 37 2.9 91 91 Calm 30.11 1020 10 16 0.00 0.00
1:56 am 01:56 Cloudy with Mist and Fog 37 3 36 2.3 95 95 Calm 30.11 1020 8 13 0.00 0.00
2:56 am 02:56 Cloudy with Mist and Fog 38 3.5 37 2.6 94 94 Calm 30.10 1019 10 16 0.00 0.00
3:56 am 03:56 Cloudy with Mist and Fog 38 3.6 36 2.4 92 92 Calm 30.08 1019 10 16 0.00 0.00
4:56 am 04:56 Mostly Cloudy with Mist and Fog 36 2.3 35 1.4 94 94 Calm 30.08 1019 6 10 0.00 0.00
5:56 am 05:56 Cloudy with Mist and Fog 38 3.1 36 2.1 93 93 NW 3 6 30.05 1018 9 14 0.00 0.00
6:56 am 06:56 Partly Cloudy with Mist and Fog 35 1.4 33 0.4 93 93 NW 3 6 30.06 1018 10 16 0.00 0.00
7:26 am 07:26 Mostly Cloudy 36 2 34 1 93 93 Calm 30.08 1019 7 11 0.00 0.00
7:41 am 07:41 Partly Cloudy with Mist and Fog 36 2 34 1 93 93 Calm 30.06 1018 5 8 0.00 0.00
7:56 am 07:56 Partly Cloudy with Mist and Fog 34 1 32 0 93 93 Calm 30.07 1018 6 10 0.00 0.00
8:26 am 08:26 Mostly Cloudy with Mist and Fog 32 0 30 -1 93 93 Calm 30.08 1019 3 4 0.00 0.00
8:41 am 08:41 Cloudy with Mist and Fog 34 1 32 0 93 93 Calm 30.09 1019 4 6 0.00 0.00
8:56 am 08:56 Cloudy with Mist and Fog 36 2.4 35 1.8 96 96 Calm 30.09 1019 8 13 0.00 0.00
8:58 am 08:58 Cloudy with Mist and Fog 37 3 36 2 93 93 Calm 30.09 1019 9 14 0.00 0.00
9:43 am 09:43 Cloudy 41 5 39 4 93 93 Calm 30.07 1018 10 16 0.00 0.00
9:56 am 09:56 Cloudy 41 5 37 3 87 87 SE 6 9 30.07 1018 30 48 0.00 0.00
10:42 am 10:42 Cloudy 41 5 39 4 93 93 Calm 30.07 1018 10 16 0.00 0.00
10:56 am 10:56 Cloudy 43 6 39 4 87 87 SSE 5 7 30.04 1017 10 16 0.00 0.00
11:41 am 11:41 Cloudy 45 7 41 5 87 87 SSW 3 6 30.06 1018 10 16 0.00 0.00
11:56 am 11:56 Cloudy 45 7.2 40 4.7 84 84 S 5 7 30.06 1018 10 16 0.00 0.00
11:58 am 11:58 Cloudy 45 7 41 5 87 87 WSW 5 7 30.07 1018 10 16 0.00 0.00
12:11 pm 12:11 Cloudy 46 8 41 5 82 82 S 7 11 30.06 1018 10 16 0.00 0.00
12:26 pm 12:26 Cloudy 48 9 43 6 82 82 SSW 5 7 30.05 1018 10 16 0.00 0.00
12:41 pm 12:41 Mostly Cloudy 50 10 43 6 76 76 S 5 7 30.05 1018 10 16 0.00 0.00
12:56 pm 12:56 Mostly Sunny 52 11 45 7 77 77 SSW 9 15 30.04 1017 10 16 0.00 0.00
1:56 pm 13:56 Mostly Sunny 59 15 46 8 63 63 S 8 13 29.98 1015 10 16 0.00 0.00
2:56 pm 14:56 Sunny 61 16.1 45 7.3 56 56 S 10 17 29.92 1013 10 16 0.00 0.00
2:59 pm 14:59 Sunny 61 16 45 7 55 55 S 9 15 29.92 1013 10 16 0.00 0.00
3:56 pm 15:56 Sunny 64 17.7 44 6.8 49 49 S 9 15 29.89 1012 10 16 0.00 0.00
3:58 pm 15:58 Sunny 64 18 45 7 49 49 S 12 19 29.85 1011 10 16 0.00 0.00
4:56 pm 16:56 Sunny 65 18.6 44 6.4 45 45 SSW 12 19 29.86 1011 10 16 0.00 0.00
5:56 pm 17:56 Sunny 65 18.1 44 6.9 48 48 SSW 14 22 29.84 1010 10 16 0.00 0.00
5:57 pm 17:57 Sunny 64 18 45 7 49 49 SSW 13 20 29.84 1011 10 16 0.00 0.00
6:56 pm 18:56 Sunny 62 16.5 46 7.7 56 56 SSW 8 13 29.84 1011 10 16 0.00 0.00
7:56 pm 19:56 Clear 56 13.6 45 7.4 66 66 S 7 11 29.83 1010 10 16 0.00 0.00
8:56 pm 20:56 Clear 54 12 45 7.1 72 72 SSE 5 7 29.82 1010 10 16 0.00 0.00
9:56 pm 21:56 Clear 51 10.3 45 7.2 81 81 SSE 3 6 29.80 1009 10 16 0.00 0.00
10:56 pm 22:56 Mostly Clear 51 10.8 46 7.7 81 81 SSE 7 11 29.77 1008 10 16 0.00 0.00
11:56 pm 23:56 Mostly Clear 52 10.9 45 7.4 79 79 SE 8 13 29.75 1008 10 16 0.00 0.00

Powered by AerisWeather